When you browse on this site, cookies collect data to enhance your experience and personalize the content and advertising you see.
Visit our Privacy Policy to learn more. By continuing to use the site, you agree to this use of cookies and data.
  • In Österreich
  • Länderverzeichnis
  • Für 7 Tage
  • Wassertemperatur
  • Satellitenkarten
  • Wetterkarte
  • News
  • Widgets
  • user-avatar
    Anmelden

    Stündliche Wetter Murzynowo

    Heute, 21 Februar, Donnerstag

    Zeit Temperatur Niederschläge Wind Luftdruck Luftfeuchtigkeit
    00:00 +6°C° 0 mm 2 m/S 764 mmHg 88%
    01:00 +5°C° 0 mm 2 m/S 764 mmHg 91%
    02:00 +5°C° 0 mm 2 m/S 764 mmHg 89%
    03:00 +5°C° 0 mm 3 m/S 764 mmHg 88%
    04:00 +5°C° 0 mm 3 m/S 764 mmHg 86%
    05:00 +5°C° 0 mm 3 m/S 764 mmHg 86%
    06:00 +5°C° 0 mm 3 m/S 764 mmHg 86%
    07:00 +5°C° 0 mm 4 m/S 764 mmHg 86%
    08:00 +5°C° 0.1 mm 4 m/S 764 mmHg 84%
    09:00 +5°C° 0.1 mm 4 m/S 764 mmHg 82%
    10:00 +6°C° 0.1 mm 5 m/S 763 mmHg 80%
    11:00 +6°C° 0.1 mm 5 m/S 763 mmHg 80%
    12:00 +7°C° 0.1 mm 5 m/S 763 mmHg 79%
    13:00 +7°C° 0.1 mm 6 m/S 763 mmHg 79%
    14:00 +7°C° 0.3 mm 5 m/S 763 mmHg 80%
    15:00 +7°C° 0.3 mm 5 m/S 763 mmHg 82%
    16:00 +7°C° 0.3 mm 5 m/S 763 mmHg 83%
    17:00 +7°C° 0.2 mm 5 m/S 762 mmHg 85%
    18:00 +7°C° 0.2 mm 5 m/S 762 mmHg 86%
    19:00 +7°C° 0.2 mm 5 m/S 762 mmHg 88%
    20:00 +7°C° 0.3 mm 5 m/S 762 mmHg 89%
    21:00 +7°C° 0.3 mm 4 m/S 763 mmHg 90%
    22:00 +7°C° 0.3 mm 4 m/S 763 mmHg 90%
    23:00 +7°C° 0.2 mm 4 m/S 763 mmHg 90%

    Morgen, 22 Februar, Freitag

    Zeit Temperatur Niederschläge Wind Luftdruck Luftfeuchtigkeit
    00:00 +7°C° 0.2 mm 5 m/S 764 mmHg 90%
    01:00 +7°C° 0.2 mm 5 m/S 764 mmHg 90%
    02:00 +6°C° 0.3 mm 5 m/S 765 mmHg 87%
    03:00 +5°C° 0.3 mm 5 m/S 766 mmHg 83%
    04:00 +2°C° 0.3 mm 6 m/S 767 mmHg 80%
    05:00 +1°C° 0 mm 5 m/S 768 mmHg 78%
    06:00 0°C° 0 mm 5 m/S 770 mmHg 75%
    07:00 -1°C° 0 mm 5 m/S 771 mmHg 73%
    08:00 -1°C° 0 mm 4 m/S 772 mmHg 66%
    09:00 -1°C° 0 mm 4 m/S 773 mmHg 59%
    10:00 -1°C° 0 mm 4 m/S 774 mmHg 52%
    11:00 0°C° 0 mm 4 m/S 775 mmHg 49%
    12:00 +1°C° 0 mm 4 m/S 776 mmHg 45%
    13:00 +2°C° 0 mm 3 m/S 776 mmHg 42%
    14:00 +2°C° 0 mm 3 m/S 777 mmHg 41%
    15:00 +2°C° 0 mm 3 m/S 777 mmHg 41%
    16:00 +2°C° 0 mm 3 m/S 777 mmHg 41%
    17:00 +2°C° 0 mm 2 m/S 778 mmHg 45%
    18:00 +1°C° 0 mm 2 m/S 778 mmHg 49%
    19:00 -1°C° 0 mm 2 m/S 778 mmHg 53%
    20:00 -1°C° 0 mm 2 m/S 779 mmHg 53%
    21:00 -2°C° 0 mm 2 m/S 779 mmHg 53%
    22:00 0°C° 0 mm 1 m/S 780 mmHg 53%
    23:00 -2°C° 0 mm 2 m/S 780 mmHg 52%

    übermorgen, 23 Februar, Samstag

    Zeit Temperatur Niederschläge Wind Luftdruck Luftfeuchtigkeit
    00:00 -2°C° 0 mm 2 m/S 780 mmHg 51%
    01:00 -2°C° 0 mm 2 m/S 780 mmHg 51%
    02:00 -2°C° 0 mm 2 m/S 780 mmHg 50%
    03:00 -1°C° 0 mm 1 m/S 779 mmHg 50%
    04:00 -1°C° 0 mm 1 m/S 779 mmHg 50%
    05:00 -1°C° 0 mm 1 m/S 779 mmHg 50%
    06:00 -1°C° 0 mm 1 m/S 780 mmHg 51%
    07:00 -1°C° 0 mm 1 m/S 780 mmHg 51%
    08:00 0°C° 0 mm 1 m/S 780 mmHg 46%
    09:00 +1°C° 0 mm 1 m/S 780 mmHg 41%
    10:00 +1°C° 0 mm 2 m/S 780 mmHg 35%
    11:00 +2°C° 0 mm 2 m/S 780 mmHg 32%
    12:00 +3°C° 0 mm 2 m/S 780 mmHg 29%
    13:00 +4°C° 0 mm 2 m/S 779 mmHg 26%
    14:00 +5°C° 0 mm 1 m/S 779 mmHg 27%
    15:00 +5°C° 0 mm 1 m/S 779 mmHg 28%
    16:00 +5°C° 0 mm 1 m/S 778 mmHg 29%
    17:00 +4°C° 0 mm 1 m/S 778 mmHg 32%
    18:00 +3°C° 0 mm 1 m/S 778 mmHg 34%
    19:00 +1°C° 0 mm 1 m/S 778 mmHg 37%
    20:00 +1°C° 0 mm 1 m/S 778 mmHg 38%
    21:00 +1°C° 0 mm 1 m/S 778 mmHg 38%
    22:00 +1°C° 0 mm 1 m/S 778 mmHg 39%
    23:00 +1°C° 0 mm 1 m/S 778 mmHg 39%

    24 Februar, Sonntag

    Zeit Temperatur Niederschläge Wind Luftdruck Luftfeuchtigkeit
    00:00 +1°C° 0 mm 1 m/S 777 mmHg 39%
    01:00 +1°C° 0 mm 1 m/S 777 mmHg 40%
    02:00 +1°C° 0 mm 1 m/S 777 mmHg 40%
    03:00 +1°C° 0 mm 1 m/S 777 mmHg 40%
    04:00 +1°C° 0 mm 1 m/S 777 mmHg 41%
    05:00 +1°C° 0 mm 1 m/S 776 mmHg 41%
    06:00 +1°C° 0 mm 1 m/S 776 mmHg 41%
    07:00 -1°C° 0 mm 2 m/S 776 mmHg 41%
    08:00 +1°C° 0 mm 2 m/S 776 mmHg 39%
    09:00 +3°C° 0 mm 2 m/S 776 mmHg 37%
    10:00 +3°C° 0 mm 3 m/S 776 mmHg 35%
    11:00 +4°C° 0 mm 3 m/S 776 mmHg 36%
    12:00 +7°C° 0 mm 3 m/S 775 mmHg 38%
    13:00 +8°C° 0 mm 3 m/S 775 mmHg 39%
    14:00 +8°C° 0 mm 3 m/S 775 mmHg 44%
    15:00 +8°C° 0 mm 2 m/S 775 mmHg 49%
    16:00 +8°C° 0 mm 2 m/S 775 mmHg 53%
    17:00 +6°C° 0 mm 2 m/S 775 mmHg 59%
    18:00 +5°C° 0 mm 2 m/S 775 mmHg 65%
    19:00 +4°C° 0 mm 2 m/S 775 mmHg 70%
    20:00 +3°C° 0 mm 2 m/S 775 mmHg 72%
    21:00 +3°C° 0 mm 2 m/S 775 mmHg 75%
    22:00 +3°C° 0 mm 2 m/S 775 mmHg 77%
    23:00 +2°C° 0 mm 2 m/S 775 mmHg 77%

    25 Februar, Montag

    Zeit Temperatur Niederschläge Wind Luftdruck Luftfeuchtigkeit
    00:00 +2°C° 0 mm 2 m/S 775 mmHg 78%
    01:00 +2°C° 0 mm 2 m/S 775 mmHg 79%
    02:00 +2°C° 0 mm 2 m/S 775 mmHg 81%
    03:00 +1°C° 0 mm 2 m/S 775 mmHg 83%
    04:00 +1°C° 0 mm 2 m/S 775 mmHg 86%
    05:00 +1°C° 0 mm 2 m/S 775 mmHg 88%
    06:00 +1°C° 0 mm 2 m/S 775 mmHg 91%
    07:00 +2°C° 0 mm 1 m/S 775 mmHg 93%
    08:00 +3°C° 0 mm 2 m/S 776 mmHg 88%
    09:00 +4°C° 0 mm 2 m/S 776 mmHg 84%
    10:00 +6°C° 0 mm 2 m/S 777 mmHg 79%
    11:00 +7°C° 0 mm 2 m/S 776 mmHg 73%
    12:00 +10°C° 0 mm 1 m/S 776 mmHg 67%
    13:00 +11°C° 0 mm 1 m/S 776 mmHg 61%
    14:00 +11°C° 0 mm 1 m/S 776 mmHg 61%
    15:00 +10°C° 0 mm 0 m/S 775 mmHg 62%
    16:00 +10°C° 0 mm 0 m/S 775 mmHg 62%
    17:00 +9°C° 0 mm 0 m/S 775 mmHg 67%
    18:00 +7°C° 0 mm 0 m/S 775 mmHg 73%
    19:00 +6°C° 0 mm 0 m/S 775 mmHg 78%
    20:00 +6°C° 0 mm 0 m/S 775 mmHg 80%
    21:00 +5°C° 0 mm 0 m/S 775 mmHg 82%
    22:00 +6°C° 0 mm 1 m/S 775 mmHg 84%
    23:00 +6°C° 0 mm 1 m/S 775 mmHg 86%

    26 Februar, Dienstag

    Zeit Temperatur Niederschläge Wind Luftdruck Luftfeuchtigkeit
    00:00 +5°C° 0 mm 1 m/S 774 mmHg 88%
    01:00 +5°C° 0 mm 1 m/S 774 mmHg 90%
    02:00 +4°C° 0 mm 2 m/S 774 mmHg 91%
    03:00 +4°C° 0 mm 2 m/S 773 mmHg 92%
    04:00 +4°C° 0 mm 2 m/S 773 mmHg 93%
    05:00 +3°C° 0 mm 2 m/S 772 mmHg 93%
    06:00 +3°C° 0 mm 2 m/S 772 mmHg 93%
    07:00 +3°C° 0 mm 2 m/S 772 mmHg 92%
    08:00 +3°C° 0 mm 3 m/S 771 mmHg 84%
    09:00 +5°C° 0 mm 3 m/S 771 mmHg 75%
    10:00 +6°C° 0 mm 4 m/S 771 mmHg 67%
    11:00 +8°C° 0 mm 4 m/S 771 mmHg 62%
    12:00 +10°C° 0 mm 4 m/S 770 mmHg 57%
    13:00 +12°C° 0 mm 5 m/S 770 mmHg 53%
    14:00 +12°C° 0 mm 5 m/S 769 mmHg 54%
    15:00 +12°C° 0 mm 4 m/S 769 mmHg 55%
    16:00 +12°C° 0 mm 4 m/S 769 mmHg 57%
    17:00 +11°C° 0 mm 4 m/S 769 mmHg 63%
    18:00 +9°C° 0 mm 3 m/S 769 mmHg 70%
    19:00 +8°C° 0 mm 3 m/S 769 mmHg 76%
    20:00 +7°C° 0 mm 2 m/S 769 mmHg 81%
    21:00 +6°C° 0 mm 2 m/S 769 mmHg 85%
    22:00 +5°C° 0 mm 2 m/S 769 mmHg 90%
    23:00 +5°C° 0 mm 2 m/S 769 mmHg 92%
    Mehr zeigen